Visibility
15.0 15.0 15.0 15.0 15.0 15.0 15.0 15.0 15.0 15.0 15.0 15.0 15.0 15.0 15.0 15.0 15.0 15.0 15.0 15.0 15.0 7.6 15.0 15.0 15.0 15.0 15.0 15.0 15.0 10.6 11.9 11.6 5.7 14.1 12.9 15.0 15.0 15.0 15.0 15.0 15.0 15.0 15.0 15.0 14.5 1.6 15.0 15.0 15.0 15.0 15.0 15.0 15.0 15.0
15.0 15.0 15.0 15.0 15.0 15.0 15.0 15.0 15.0 15.0 15.0 15.0 15.0 15.0 15.0 14.7 14.0 15.0 15.0 15.0 15.0 15.0 15.0 15.0 15.0 15.0 15.0 15.0 15.0 15.0 1.6 15.0 0.0 0.0 0.0 0.0 14.0 15.0 15.0 15.0 15.0 15.0 15.0 15.0 15.0 15.0 15.0 15.0 15.0 15.0 15.0 15.0 15.0 15.0
15.0 15.0 15.0 15.0 15.0 15.0 15.0 15.0 15.0 15.0 15.0 15.0 15.0 15.0 15.0 15.0 15.0 15.0 15.0 15.0 15.0 15.0 15.0 15.0 15.0 15.0 15.0 15.0 15.0 15.0 15.0 15.0 15.0 15.0 11.3 0.1 0.0 0.5 7.8 15.0 15.0 15.0 15.0 15.0 15.0 15.0 15.0 15.0 15.0 15.0 15.0 15.0 15.0 15.0
15.0 15.0 15.0 15.0 15.0 15.0 15.0 15.0 15.0 15.0 15.0 15.0 15.0 15.0 15.0 12.5 15.0 15.0 15.0 15.0 15.0 6.8 14.4 15.0 15.0 15.0 15.0 15.0 15.0 15.0 15.0 15.0 15.0 15.0 15.0 15.0 6.6 8.4 13.8 15.0 15.0 15.0 15.0 15.0 15.0 15.0 15.0 15.0 15.0 15.0 15.0 15.0 15.0 15.0
15.0 15.0 15.0 15.0 15.0 15.0 15.0 15.0 15.0 15.0 15.0 15.0 15.0 15.0 15.0 15.0 15.0 15.0 15.0 15.0 15.0 15.0 14.6 15.0 15.0 15.0 15.0 15.0 15.0 15.0 15.0 15.0 15.0 15.0 0.7 11.3 15.0 4.7 15.0 1.5 10.5 15.0 15.0 15.0 15.0 15.0 15.0 15.0 15.0 15.0 15.0 15.0 15.0 15.0
15.0 15.0 15.0 15.0 15.0 15.0 15.0 15.0 15.0 15.0 15.0 15.0 15.0 15.0 15.0 15.0 15.0 15.0 15.0 15.0 15.0 15.0 14.8 14.0 15.0 15.0 15.0 15.0 15.0 15.0 15.0 15.0 15.0 15.0 15.0 15.0 15.0 14.9 0.3 10.9 15.0 15.0 15.0 15.0 15.0 15.0 15.0 15.0 15.0 15.0 15.0 15.0 15.0 15.0
15.0 15.0 15.0 15.0 15.0 15.0 15.0 15.0 15.0 15.0 15.0 15.0 15.0 15.0 15.0 15.0 15.0 15.0 15.0 15.0 15.0 15.0 15.0 9.0 15.0 15.0 15.0 15.0 15.0 15.0 15.0 15.0 15.0 15.0 13.7 15.0 15.0 15.0 13.7 14.3 15.0 15.0 15.0 15.0 15.0 15.0 15.0 15.0 15.0 15.0 15.0 15.0 15.0 15.0
15.0 15.0 15.0 15.0 15.0 15.0 15.0 15.0 15.0 15.0 15.0 15.0 15.0 15.0 15.0 15.0 15.0 15.0 15.0 15.0 15.0 8.7 15.0 10.6 14.6 15.0 15.0 15.0 14.3 15.0 15.0 15.0 14.9 10.6 15.0 15.0 15.0 15.0 15.0 15.0 15.0 15.0 15.0 15.0 15.0 15.0 15.0 12.6 14.9 15.0 15.0 15.0 15.0 15.0
15.0 15.0 15.0 15.0 15.0 15.0 15.0 15.0 15.0 15.0 15.0 15.0 15.0 15.0 15.0 15.0 15.0 15.0 15.0 15.0 15.0 15.0 12.5 15.0 0.4 3.8 15.0 15.0 3.1 1.3 15.0 7.7 15.0 14.7 15.0 15.0 15.0 11.8 15.0 15.0 15.0 15.0 15.0 15.0 14.1 4.2 13.5 13.9 15.0 15.0 15.0 15.0 15.0 15.0
15.0 15.0 15.0 15.0 15.0 15.0 15.0 15.0 15.0 15.0 15.0 15.0 15.0 15.0 15.0 15.0 15.0 15.0 15.0 6.7 15.0 15.0 15.0 14.7 4.1 0.3 12.8 13.1 0.7 0.2 2.9 8.6 2.2 15.0 15.0 15.0 15.0 14.6 5.4 11.2 15.0 15.0 8.4 0.2 0.0 0.0 11.1 15.0 15.0 15.0 15.0 15.0 15.0 15.0
15.0 15.0 15.0 15.0 15.0 15.0 15.0 15.0 15.0 15.0 15.0 15.0 15.0 15.0 15.0 15.0 15.0 15.0 15.0 13.8 15.0 14.8 0.5 12.4 0.3 13.7 15.0 1.7 1.5 4.5 2.4 1.6 0.2 10.9 13.7 1.1 0.1 0.0 0.0 0.1 15.0 15.0 15.0 15.0 0.5 1.9 15.0 15.0 15.0 15.0 15.0 15.0 15.0 15.0
15.0 15.0 15.0 15.0 15.0 15.0 15.0 15.0 15.0 15.0 15.0 15.0 15.0 15.0 15.0 15.0 15.0 9.9 0.1 15.0 15.0 15.0 15.0 11.2 12.4 8.7 15.0 10.9 0.0 1.3 0.0 0.0 6.9 0.2 0.1 0.1 0.0 0.2 0.0 0.0 0.0 1.0 15.0 15.0 15.0 14.2 15.0 15.0 15.0 15.0 15.0 15.0 15.0 15.0
15.0 15.0 15.0 15.0 15.0 15.0 15.0 15.0 15.0 15.0 15.0 15.0 15.0 15.0 15.0 15.0 15.0 15.0 15.0 15.0 14.5 15.0 14.1 13.9 15.0 15.0 15.0 2.1 0.0 0.0 0.0 0.0 0.0 0.0 0.0 0.1 0.0 0.1 0.0 0.0 0.0 0.0 0.0 0.1 0.0 0.0 10.0 15.0 15.0 15.0 15.0 15.0 15.0 15.0
15.0 15.0 15.0 15.0 15.0 15.0 15.0 15.0 15.0 15.0 15.0 15.0 15.0 15.0 15.0 15.0 15.0 15.0 15.0 15.0 15.0 0.6 15.0 15.0 14.6 2.4 15.0 9.6 0.1 0.0 6.3 0.0 0.0 0.2 0.5 0.0 0.0 0.0 0.0 0.0 0.0 0.0 0.0 0.0 0.0 0.0 0.0 14.9 15.0 15.0 15.0 15.0 15.0 15.0
15.0 15.0 15.0 15.0 15.0 15.0 15.0 15.0 15.0 15.0 15.0 7.4 15.0 15.0 15.0 15.0 6.9 1.3 14.3 2.4 15.0 13.3 2.6 4.0 15.0 1.2 11.7 0.2 5.2 0.0 0.0 0.1 0.2 0.3 15.0 10.0 0.0 0.0 0.0 0.0 0.1 0.1 0.0 0.0 0.0 0.0 0.1 1.1 15.0 15.0 15.0 15.0 15.0 15.0
15.0 15.0 15.0 15.0 15.0 15.0 15.0 15.0 15.0 15.0 15.0 15.0 15.0 15.0 11.1 13.3 15.0 0.1 0.1 2.3 11.8 15.0 11.4 15.0 15.0 1.5 12.8 0.2 0.7 3.0 10.3 12.0 15.0 0.4 1.4 0.2 0.1 0.3 0.0 0.0 4.0 15.0 13.2 1.7 0.2 0.1 0.2 2.2 2.4 14.8 15.0 15.0 15.0 15.0
15.0 8.1 13.3 15.0 15.0 15.0 15.0 15.0 15.0 8.0 15.0 15.0 15.0 14.6 7.5 1.5 15.0 11.2 14.0 14.3 15.0 15.0 13.9 5.2 2.0 14.5 13.6 6.5 0.5 12.2 15.0 15.0 14.0 1.9 15.0 9.3 2.9 15.0 0.2 14.7 15.0 15.0 15.0 14.6 0.1 0.1 0.1 0.1 0.8 15.0 15.0 15.0 15.0 15.0
0.5 3.5 15.0 15.0 15.0 15.0 15.0 15.0 14.7 15.0 15.0 5.4 15.0 8.2 15.0 15.0 15.0 15.0 15.0 15.0 15.0 14.8 14.3 11.7 15.0 9.4 2.3 0.3 2.1 15.0 2.9 1.3 0.1 4.1 15.0 15.0 15.0 15.0 15.0 15.0 12.9 15.0 12.5 0.1 0.1 0.2 4.0 3.5 3.4 1.7 14.4 15.0 15.0 15.0
7.8 15.0 15.0 15.0 15.0 15.0 15.0 15.0 15.0 13.5 12.4 5.7 8.0 7.0 11.1 15.0 15.0 15.0 15.0 15.0 15.0 15.0 15.0 11.5 11.2 14.0 15.0 15.0 15.0 2.5 10.3 3.5 13.1 15.0 15.0 15.0 15.0 15.0 15.0 15.0 12.4 0.1 0.1 0.1 0.3 13.0 15.0 15.0 11.0 0.7 4.0 15.0 15.0 15.0
15.0 15.0 15.0 15.0 15.0 15.0 15.0 0.1 15.0 15.0 12.8 15.0 12.1 12.5 8.0 15.0 14.8 12.7 14.4 15.0 15.0 15.0 15.0 5.7 13.4 15.0 15.0 15.0 15.0 15.0 15.0 15.0 15.0 15.0 15.0 15.0 15.0 15.0 15.0 15.0 15.0 9.5 0.1 0.1 0.1 0.1 5.5 15.0 15.0 15.0 15.0 15.0 15.0 15.0
15.0 15.0 15.0 15.0 15.0 15.0 14.8 7.7 0.2 6.0 4.3 15.0 5.6 5.2 12.8 4.1 4.1 0.2 4.1 8.0 9.5 14.6 9.0 15.0 15.0 15.0 15.0 15.0 15.0 15.0 15.0 15.0 15.0 15.0 15.0 15.0 15.0 15.0 15.0 15.0 15.0 15.0 12.8 0.1 0.1 0.2 14.8 15.0 15.0 15.0 15.0 15.0 15.0 15.0
0.3 15.0 15.0 15.0 15.0 15.0 4.1 6.6 15.0 5.4 12.7 3.8 0.7 1.4 4.1 14.6 4.2 1.0 2.9 4.6 13.1 15.0 15.0 15.0 15.0 15.0 15.0 15.0 15.0 15.0 15.0 15.0 15.0 15.0 15.0 15.0 15.0 15.0 15.0 15.0 8.0 15.0 15.0 15.0 15.0 5.3 15.0 15.0 15.0 15.0 15.0 15.0 15.0 15.0
15.0 15.0 11.1 9.9 15.0 15.0 0.4 14.7 6.8 2.3 3.0 8.4 2.2 9.3 10.3 4.5 1.7 1.2 0.2 4.6 13.8 15.0 15.0 15.0 15.0 15.0 15.0 15.0 15.0 15.0 15.0 15.0 15.0 15.0 15.0 15.0 15.0 15.0 15.0 15.0 15.0 14.7 15.0 15.0 15.0 15.0 15.0 15.0 15.0 15.0 15.0 15.0 15.0 15.0
15.0 15.0 2.6 10.9 15.0 7.8 5.2 2.0 6.1 3.0 2.8 2.8 0.3 0.1 14.9 5.1 0.8 1.0 0.2 15.0 15.0 15.0 12.4 15.0 15.0 15.0 15.0 15.0 15.0 15.0 15.0 15.0 15.0 15.0 15.0 15.0 15.0 15.0 15.0 15.0 15.0 15.0 15.0 15.0 15.0 15.0 15.0 15.0 15.0 15.0 15.0 15.0 15.0 15.0
15.0 15.0 15.0 0.1 1.1 6.4 0.3 0.6 1.2 0.9 0.0 2.3 0.1 0.5 11.6 1.8 4.1 0.5 2.4 15.0 15.0 15.0 15.0 15.0 15.0 15.0 15.0 15.0 15.0 15.0 15.0 15.0 15.0 15.0 15.0 15.0 10.6 10.2 15.0 15.0 15.0 15.0 15.0 9.9 15.0 15.0 15.0 15.0 15.0 15.0 15.0 15.0 15.0 15.0
15.0 15.0 10.8 14.4 3.5 15.0 8.8 1.5 1.2 1.7 3.2 2.3 0.5 5.4 3.1 3.7 0.1 0.9 15.0 15.0 15.0 15.0 15.0 15.0 15.0 15.0 15.0 15.0 15.0 15.0 15.0 15.0 14.9 15.0 15.0 15.0 15.0 15.0 15.0 15.0 15.0 15.0 15.0 15.0 15.0 15.0 15.0 15.0 15.0 15.0 15.0 15.0 15.0 15.0
6.9 4.3 8.9 15.0 15.0 12.1 4.1 9.2 15.0 8.1 2.4 0.4 4.2 2.4 2.6 3.7 8.9 15.0 15.0 15.0 15.0 15.0 15.0 15.0 15.0 15.0 15.0 15.0 15.0 15.0 15.0 15.0 15.0 15.0 15.0 15.0 15.0 15.0 15.0 15.0 15.0 15.0 15.0 15.0 15.0 15.0 15.0 15.0 15.0 15.0 15.0 15.0 15.0 15.0
14.2 15.0 4.0 2.6 2.4 3.5 9.8 4.1 4.1 4.0 15.0 13.9 11.9 2.7 13.5 13.7 15.0 15.0 15.0 15.0 15.0 15.0 15.0 15.0 15.0 15.0 15.0 15.0 15.0 15.0 15.0 15.0 6.8 8.6 13.6 15.0 15.0 15.0 15.0 15.0 15.0 15.0 15.0 15.0 15.0 15.0 15.0 15.0 15.0 15.0 15.0 15.0 15.0 15.0
1.3 12.6 15.0 4.7 1.0 0.2 9.7 15.0 15.0 15.0 15.0 15.0 15.0 15.0 15.0 15.0 15.0 15.0 15.0 15.0 14.6 15.0 15.0 15.0 15.0 15.0 15.0 15.0 15.0 15.0 15.0 15.0 15.0 15.0 15.0 15.0 15.0 15.0 15.0 15.0 13.6 12.9 15.0 15.0 15.0 15.0 15.0 15.0 15.0 15.0 15.0 15.0 13.9 13.6
13.0 15.0 6.6 0.5 3.1 5.1 14.8 15.0 15.0 15.0 9.7 15.0 15.0 15.0 15.0 15.0 15.0 15.0 15.0 15.0 10.4 15.0 15.0 15.0 15.0 15.0 15.0 15.0 15.0 15.0 12.5 15.0 15.0 15.0 15.0 15.0 15.0 15.0 5.7 6.3 4.3 5.7 4.2 4.9 11.9 7.3 15.0 8.3 11.3 6.9 7.0 4.1 4.0 3.6
12.8 5.9 11.7 4.4 5.1 15.0 15.0 9.3 8.1 15.0 10.8 12.4 6.7 14.0 15.0 15.0 15.0 15.0 15.0 15.0 15.0 15.0 15.0 15.0 15.0 15.0 15.0 15.0 15.0 15.0 15.0 13.0 15.0 15.0 15.0 11.8 4.8 4.8 9.7 15.0 8.5 4.1 4.1 4.1 6.0 12.9 6.7 4.5 4.1 3.6 2.5 3.4 2.4 4.5
0.2 4.1 0.1 0.0 1.8 15.0 14.9 10.3 5.8 6.4 9.1 4.1 14.8 2.0 7.2 14.8 15.0 15.0 15.0 15.0 15.0 15.0 15.0 15.0 15.0 15.0 1.5 4.6 5.7 5.0 15.0 6.9 15.0 15.0 15.0 8.1 4.8 4.1 4.2 4.7 4.1 4.1 4.1 4.1 4.4 10.1 15.0 10.1 4.2 4.1 4.0 3.6 4.0 3.9
0.4 0.4 0.5 1.2 3.1 5.3 15.0 15.0 14.2 7.6 4.9 4.1 11.4 13.4 15.0 15.0 15.0 15.0 8.2 5.7 11.2 13.0 9.9 13.1 13.0 3.5 2.3 3.7 4.9 8.8 2.1 5.8 0.2 15.0 15.0 15.0 15.0 3.3 1.2 4.1 4.1 4.1 9.4 4.1 4.1 6.8 3.9 2.8 1.6 1.1 1.2 1.2 1.6 1.9